Time,TemperatureF,DewpointF,PressureIn,WindDirection,WindDirectionDegrees,WindSpeedMPH,WindSpeedGustMPH,Humidity,HourlyPrecipIn,Conditions,Clouds,dailyrainin,SoftwareType,DateUTC
2013-04-04 00:00:00,49.3,22.1,30.06,ESE,112,0.4,0.4,34,0.00,,---,0.00,VWS V14.01,2013-04-04 06:00:00,
2013-04-04 00:05:00,49.1,22.0,30.06,ESE,112,0.0,0.0,34,0.00,,---,0.00,VWS V14.01,2013-04-04 06:05:00,
2013-04-04 00:10:00,48.8,21.7,30.06,ESE,112,0.0,0.0,34,0.00,,---,0.00,VWS V14.01,2013-04-04 06:10:00,
2013-04-04 00:15:00,48.4,21.3,30.06,ESE,112,0.0,0.0,34,0.00,,---,0.00,VWS V14.01,2013-04-04 06:15:00,
2013-04-04 00:20:00,48.4,21.3,30.06,East,90,0.9,0.9,34,0.00,,---,0.00,VWS V14.01,2013-04-04 06:20:00,
2013-04-04 00:25:00,47.9,20.9,30.06,East,90,0.0,0.0,34,0.00,,---,0.00,VWS V14.01,2013-04-04 06:25:00,
2013-04-04 00:30:00,47.3,21.7,30.06,East,90,0.0,0.0,36,0.00,,---,0.00,VWS V14.01,2013-04-04 06:30:00,
2013-04-04 00:35:00,46.8,20.6,30.05,East,90,0.0,0.0,35,0.00,,---,0.00,VWS V14.01,2013-04-04 06:35:00,
2013-04-04 00:40:00,47.0,22.1,30.05,East,90,0.4,0.4,37,0.00,,---,0.00,VWS V14.01,2013-04-04 06:40:00,
2013-04-04 00:45:00,47.0,21.5,30.06,WNW,292,1.8,1.8,36,0.00,,---,0.00,VWS V14.01,2013-04-04 06:45:00,
2013-04-04 00:50:00,46.8,21.3,30.06,West,270,0.0,0.0,36,0.00,,---,0.00,VWS V14.01,2013-04-04 06:50:00,
2013-04-04 00:55:00,46.8,21.9,30.06,NNW,338,3.1,3.1,37,0.00,,---,0.00,VWS V14.01,2013-04-04 06:55:00,
2013-04-04 01:00:00,47.2,22.9,30.06,WNW,292,1.8,1.8,38,0.00,,---,0.00,VWS V14.01,2013-04-04 07:00:00,
2013-04-04 01:05:00,47.7,23.4,30.06,NNW,338,1.8,1.8,38,0.00,,---,0.00,VWS V14.01,2013-04-04 07:05:00,
2013-04-04 01:10:00,47.5,23.2,30.06,NNW,338,0.4,0.4,38,0.00,,---,0.00,VWS V14.01,2013-04-04 07:10:00,
2013-04-04 01:15:00,47.2,22.9,30.06,NNW,338,0.4,0.4,38,0.00,,---,0.00,VWS V14.01,2013-04-04 07:15:00,
2013-04-04 01:20:00,47.0,22.1,30.06,NNW,338,0.0,0.0,37,0.00,,---,0.00,VWS V14.01,2013-04-04 07:20:00,
2013-04-04 01:25:00,46.4,21.6,30.06,North,0,0.0,0.0,37,0.00,,---,0.00,VWS V14.01,2013-04-04 07:25:00,
2013-04-04 01:30:00,46.3,22.1,30.06,NNE,22,0.4,0.4,38,0.00,,---,0.00,VWS V14.01,2013-04-04 07:30:00,
2013-04-04 01:35:00,46.3,21.5,30.07,NE,45,0.4,0.4,37,0.00,,---,0.00,VWS V14.01,2013-04-04 07:35:00,
2013-04-04 01:40:00,46.4,21.6,30.07,NE,45,0.0,0.0,37,0.00,,---,0.00,VWS V14.01,2013-04-04 07:40:00,
2013-04-04 01:45:00,46.1,21.9,30.07,NE,45,0.0,0.0,38,0.00,,---,0.00,VWS V14.01,2013-04-04 07:45:00,
2013-04-04 01:50:00,45.5,21.4,30.07,NE,45,0.0,0.0,38,0.00,,---,0.00,VWS V14.01,2013-04-04 07:50:00,
2013-04-04 01:55:00,45.5,22.0,30.07,East,90,0.2,0.2,39,0.00,,---,0.00,VWS V14.01,2013-04-04 07:55:00,
2013-04-04 02:00:00,45.5,22.0,30.07,SSE,158,0.0,0.0,39,0.00,,---,0.00,VWS V14.01,2013-04-04 08:00:00,
2013-04-04 02:05:00,45.0,20.9,30.07,SW,225,0.0,0.0,38,0.00,,---,0.00,VWS V14.01,2013-04-04 08:05:00,
2013-04-04 02:10:00,44.5,21.7,30.07,East,90,0.4,0.4,40,0.00,,---,0.00,VWS V14.01,2013-04-04 08:10:00,
2013-04-04 02:15:00,44.5,22.9,30.07,ENE,68,2.0,2.0,42,0.00,,---,0.00,VWS V14.01,2013-04-04 08:15:00,
2013-04-04 02:20:00,44.6,22.4,30.07,ENE,68,0.4,0.4,41,0.00,,---,0.00,VWS V14.01,2013-04-04 08:20:00,
2013-04-04 02:25:00,44.6,21.8,30.07,NE,45,0.0,0.0,40,0.00,,---,0.00,VWS V14.01,2013-04-04 08:25:00,
2013-04-04 02:30:00,44.1,21.3,30.07,NE,45,0.0,0.0,40,0.00,,---,0.00,VWS V14.01,2013-04-04 08:30:00,
2013-04-04 02:35:00,43.9,22.3,30.07,NE,45,0.0,0.0,42,0.00,,---,0.00,VWS V14.01,2013-04-04 08:35:00,
2013-04-04 02:40:00,43.6,21.5,30.07,NE,45,0.0,0.0,41,0.00,,---,0.00,VWS V14.01,2013-04-04 08:40:00,
2013-04-04 02:45:00,43.7,22.1,30.07,NE,45,0.0,0.0,42,0.00,,---,0.00,VWS V14.01,2013-04-04 08:45:00,
2013-04-04 02:50:00,43.6,21.5,30.07,NE,45,0.0,0.0,41,0.00,,---,0.00,VWS V14.01,2013-04-04 08:50:00,
2013-04-04 02:55:00,43.6,22.0,30.07,ENE,68,0.0,0.0,42,0.00,,---,0.00,VWS V14.01,2013-04-04 08:55:00,
2013-04-04 03:00:00,43.4,21.9,30.07,ENE,68,0.0,0.0,42,0.00,,---,0.00,VWS V14.01,2013-04-04 09:00:00,
2013-04-04 03:05:00,43.2,22.2,30.07,SSW,202,0.0,0.0,43,0.00,,---,0.00,VWS V14.01,2013-04-04 09:05:00,
2013-04-04 03:10:00,43.0,21.5,30.07,SSW,202,0.0,0.0,42,0.00,,---,0.00,VWS V14.01,2013-04-04 09:10:00,
2013-04-04 03:15:00,42.3,20.9,30.07,ESE,112,0.4,0.4,42,0.00,,---,0.00,VWS V14.01,2013-04-04 09:15:00,
2013-04-04 03:20:00,41.9,21.6,30.07,ESE,112,0.0,0.0,44,0.00,,---,0.00,VWS V14.01,2013-04-04 09:20:00,
2013-04-04 03:25:00,42.1,22.8,30.07,ESE,112,0.0,0.0,46,0.00,,---,0.00,VWS V14.01,2013-04-04 09:25:00,
2013-04-04 03:30:00,42.5,23.2,30.07,East,90,0.9,0.9,46,0.00,,---,0.00,VWS V14.01,2013-04-04 09:30:00,
2013-04-04 03:35:00,43.0,23.1,30.07,ENE,68,2.2,2.2,45,0.00,,---,0.00,VWS V14.01,2013-04-04 09:35:00,
2013-04-04 03:40:00,42.7,23.9,30.07,ENE,68,0.2,0.2,47,0.00,,---,0.00,VWS V14.01,2013-04-04 09:40:00,
2013-04-04 03:45:00,41.9,22.1,30.07,NE,45,0.0,0.0,45,0.00,,---,0.00,VWS V14.01,2013-04-04 09:45:00,
2013-04-04 03:50:00,41.4,22.7,30.08,NE,45,0.0,0.0,47,0.00,,---,0.00,VWS V14.01,2013-04-04 09:50:00,
2013-04-04 03:55:00,41.4,22.2,30.08,East,90,0.0,0.0,46,0.00,,---,0.00,VWS V14.01,2013-04-04 09:55:00,
2013-04-04 04:00:00,41.2,22.5,30.08,WNW,292,0.0,0.0,47,0.00,,---,0.00,VWS V14.01,2013-04-04 10:00:00,
2013-04-04 04:05:00,41.0,22.3,30.08,WNW,292,0.0,0.0,47,0.00,,---,0.00,VWS V14.01,2013-04-04 10:05:00,
2013-04-04 04:10:00,40.7,22.1,30.08,SSW,202,0.0,0.0,47,0.00,,---,0.00,VWS V14.01,2013-04-04 10:10:00,
2013-04-04 04:15:00,40.7,23.0,30.08,SSW,202,0.2,0.2,49,0.00,,---,0.00,VWS V14.01,2013-04-04 10:15:00,
2013-04-04 04:20:00,41.0,23.3,30.08,SSW,202,0.0,0.0,49,0.00,,---,0.00,VWS V14.01,2013-04-04 10:20:00,
2013-04-04 04:25:00,40.9,22.2,30.08,SSW,202,0.0,0.0,47,0.00,,---,0.00,VWS V14.01,2013-04-04 10:25:00,
2013-04-04 04:30:00,40.7,22.5,30.09,South,180,0.2,0.2,48,0.00,,---,0.00,VWS V14.01,2013-04-04 10:30:00,
2013-04-04 04:35:00,40.3,22.7,30.09,East,90,0.4,0.4,49,0.00,,---,0.00,VWS V14.01,2013-04-04 10:35:00,
2013-04-04 04:40:00,40.3,22.7,30.09,East,90,0.4,0.4,49,0.00,,---,0.00,VWS V14.01,2013-04-04 10:40:00,
2013-04-04 04:45:00,40.3,22.7,30.09,East,90,1.8,1.8,49,0.00,,---,0.00,VWS V14.01,2013-04-04 10:45:00,
2013-04-04 04:50:00,40.7,23.0,30.09,ENE,68,1.3,1.3,49,0.00,,---,0.00,VWS V14.01,2013-04-04 10:50:00,
2013-04-04 04:55:00,40.7,22.5,30.09,ENE,68,0.4,0.4,48,0.00,,---,0.00,VWS V14.01,2013-04-04 10:55:00,
2013-04-04 05:00:00,40.3,22.2,30.09,NE,45,0.2,0.2,48,0.00,,---,0.00,VWS V14.01,2013-04-04 11:00:00,
2013-04-04 05:05:00,39.6,22.0,30.09,NE,45,0.0,0.0,49,0.00,,---,0.00,VWS V14.01,2013-04-04 11:05:00,
2013-04-04 05:11:00,39.2,21.2,30.09,NE,45,0.2,0.2,48,0.00,,---,0.00,VWS V14.01,2013-04-04 11:11:00,
2013-04-04 05:16:00,39.2,21.7,30.09,NE,45,0.2,0.2,49,0.00,,---,0.00,VWS V14.01,2013-04-04 11:16:00,
2013-04-04 05:20:00,39.1,21.6,30.09,NE,45,0.4,0.4,49,0.00,,---,0.00,VWS V14.01,2013-04-04 11:20:00,
2013-04-04 05:25:00,39.1,22.5,30.10,NE,45,0.0,0.0,51,0.00,,---,0.00,VWS V14.01,2013-04-04 11:25:00,
2013-04-04 05:30:00,38.9,21.9,30.10,NE,45,0.0,0.0,50,0.00,,---,0.00,VWS V14.01,2013-04-04 11:30:00,
2013-04-04 05:35:00,38.9,22.3,30.10,SSE,158,0.0,0.0,51,0.00,,---,0.00,VWS V14.01,2013-04-04 11:35:00,
2013-04-04 05:40:00,38.9,21.4,30.10,SSE,158,0.0,0.0,49,0.00,,---,0.00,VWS V14.01,2013-04-04 11:40:00,
2013-04-04 05:45:00,38.3,21.3,30.10,ESE,112,0.2,0.2,50,0.00,,---,0.00,VWS V14.01,2013-04-04 11:45:00,
2013-04-04 05:51:00,38.0,21.5,30.10,ESE,112,0.0,0.0,51,0.00,,---,0.00,VWS V14.01,2013-04-04 11:51:00,
2013-04-04 05:56:00,38.0,22.4,30.10,ESE,112,0.4,0.4,53,0.00,,---,0.00,VWS V14.01,2013-04-04 11:56:00,
2013-04-04 06:01:00,38.5,22.4,30.11,East,90,0.0,0.0,52,0.00,,---,0.00,VWS V14.01,2013-04-04 12:01:00,
2013-04-04 06:06:00,38.2,22.1,30.11,East,90,0.0,0.0,52,0.00,,---,0.00,VWS V14.01,2013-04-04 12:06:00,
2013-04-04 06:11:00,38.2,21.2,30.11,East,90,0.0,0.0,50,0.00,,---,0.00,VWS V14.01,2013-04-04 12:11:00,
2013-04-04 06:16:00,37.8,21.8,30.11,NE,45,0.2,0.2,52,0.00,,---,0.00,VWS V14.01,2013-04-04 12:16:00,
2013-04-04 06:21:00,37.4,21.4,30.11,NE,45,0.0,0.0,52,0.00,,---,0.00,VWS V14.01,2013-04-04 12:21:00,
2013-04-04 06:26:00,37.3,22.2,30.11,NE,45,0.0,0.0,54,0.00,,---,0.00,VWS V14.01,2013-04-04 12:26:00,
2013-04-04 06:31:00,37.1,21.6,30.11,NNE,22,0.7,0.7,53,0.00,,---,0.00,VWS V14.01,2013-04-04 12:31:00,
2013-04-04 06:36:00,37.1,22.4,30.11,NNE,22,0.4,0.4,55,0.00,,---,0.00,VWS V14.01,2013-04-04 12:36:00,
2013-04-04 06:41:00,37.4,22.3,30.11,NE,45,0.0,0.0,54,0.00,,---,0.00,VWS V14.01,2013-04-04 12:41:00,
2013-04-04 06:46:00,37.4,21.9,30.11,NE,45,0.0,0.0,53,0.00,,---,0.00,VWS V14.01,2013-04-04 12:46:00,
2013-04-04 06:51:00,37.1,21.1,30.12,NE,45,0.0,0.0,52,0.00,,---,0.00,VWS V14.01,2013-04-04 12:51:00,
2013-04-04 06:57:00,37.1,22.9,30.12,ENE,68,0.4,0.4,56,0.00,,---,0.00,VWS V14.01,2013-04-04 12:57:00,
2013-04-04 07:02:00,37.6,22.9,30.12,ENE,68,0.4,0.4,55,0.00,,---,0.00,VWS V14.01,2013-04-04 13:02:00,
2013-04-04 07:07:00,38.2,23.0,30.12,ENE,68,0.0,0.0,54,0.00,,---,0.00,VWS V14.01,2013-04-04 13:07:00,
2013-04-04 07:12:00,38.2,23.0,30.12,East,90,0.0,0.0,54,0.00,,---,0.00,VWS V14.01,2013-04-04 13:12:00,
2013-04-04 07:17:00,38.0,22.9,30.12,East,90,0.4,0.4,54,0.00,,---,0.00,VWS V14.01,2013-04-04 13:17:00,
2013-04-04 07:22:00,38.5,22.9,30.12,North,0,0.2,0.2,53,0.00,,---,0.00,VWS V14.01,2013-04-04 13:22:00,
2013-04-04 07:27:00,38.2,22.1,30.12,North,0,0.0,0.0,52,0.00,,---,0.00,VWS V14.01,2013-04-04 13:27:00,
2013-04-04 07:32:00,39.8,24.1,30.12,NE,45,0.4,0.4,53,0.00,,---,0.00,VWS V14.01,2013-04-04 13:32:00,
2013-04-04 07:37:00,42.5,24.2,30.13,WSW,248,1.6,1.6,48,0.00,,---,0.00,VWS V14.01,2013-04-04 13:37:00,
2013-04-04 07:42:00,43.6,24.7,30.13,WSW,248,0.0,0.0,47,0.00,,---,0.00,VWS V14.01,2013-04-04 13:42:00,
2013-04-04 07:47:00,44.6,24.6,30.13,WSW,248,1.1,1.1,45,0.00,,---,0.00,VWS V14.01,2013-04-04 13:47:00,
2013-04-04 07:52:00,45.2,25.1,30.13,WSW,248,0.0,0.0,45,0.00,,---,0.00,VWS V14.01,2013-04-04 13:52:00,
2013-04-04 07:57:00,45.4,24.8,30.13,SW,225,0.2,0.2,44,0.00,,---,0.00,VWS V14.01,2013-04-04 13:57:00,
2013-04-04 08:02:00,45.5,24.3,30.13,SW,225,0.4,0.4,43,0.00,,---,0.00,VWS V14.01,2013-04-04 14:02:00,
2013-04-04 08:07:00,45.9,24.1,30.13,SSW,202,0.9,0.9,42,0.00,,---,0.00,VWS V14.01,2013-04-04 14:07:00,
2013-04-04 08:12:00,46.6,24.2,30.14,SW,225,0.7,0.7,41,0.00,,---,0.00,VWS V14.01,2013-04-04 14:12:00,
2013-04-04 08:17:00,47.5,25.0,30.14,WSW,248,0.0,0.0,41,0.00,,---,0.00,VWS V14.01,2013-04-04 14:17:00,
2013-04-04 08:22:00,48.8,25.0,30.14,SW,225,0.0,0.0,39,0.00,,---,0.00,VWS V14.01,2013-04-04 14:22:00,
2013-04-04 08:27:00,49.9,26.0,30.14,SW,225,0.0,0.0,39,0.00,,---,0.00,VWS V14.01,2013-04-04 14:27:00,
2013-04-04 08:32:00,53.3,28.4,30.14,SSW,202,0.0,0.2,38,0.00,,---,0.00,VWS V14.01,2013-04-04 14:32:00,
2013-04-04 08:37:00,55.1,26.5,30.14,SSW,202,1.1,1.1,33,0.00,,---,0.00,VWS V14.01,2013-04-04 14:37:00,
2013-04-04 08:42:00,54.0,25.6,30.14,SSW,202,0.4,0.4,33,0.00,,---,0.00,VWS V14.01,2013-04-04 14:42:00,
2013-04-04 08:47:00,53.1,24.8,30.15,WSW,248,0.0,0.0,33,0.00,,---,0.00,VWS V14.01,2013-04-04 14:47:00,
2013-04-04 08:52:00,54.0,24.8,30.15,SSE,158,0.4,0.4,32,0.00,,---,0.00,VWS V14.01,2013-04-04 14:52:00,
2013-04-04 08:57:00,55.4,26.0,30.15,SE,135,0.0,0.0,32,0.00,,---,0.00,VWS V14.01,2013-04-04 14:57:00,
2013-04-04 09:02:00,55.3,26.0,30.14,WSW,248,0.2,0.2,32,0.00,,---,0.00,VWS V14.01,2013-04-04 15:02:00,
2013-04-04 09:07:00,54.9,26.4,30.14,NW,315,0.9,0.9,33,0.00,,---,0.00,VWS V14.01,2013-04-04 15:07:00,
2013-04-04 09:12:00,56.3,26.8,30.15,NNE,22,0.7,0.7,32,0.00,,---,0.00,VWS V14.01,2013-04-04 15:12:00,
2013-04-04 09:17:00,57.4,26.2,30.15,West,270,1.6,1.6,30,0.00,,---,0.00,VWS V14.01,2013-04-04 15:17:00,
2013-04-04 09:22:00,55.4,26.0,30.15,SW,225,0.4,0.4,32,0.00,,---,0.00,VWS V14.01,2013-04-04 15:22:00,
2013-04-04 09:27:00,56.2,26.8,30.15,NW,315,0.2,0.2,32,0.00,,---,0.00,VWS V14.01,2013-04-04 15:27:00,
2013-04-04 09:32:00,56.0,26.6,30.15,SW,225,2.7,2.7,32,0.00,,---,0.00,VWS V14.01,2013-04-04 15:32:00,
2013-04-04 09:37:00,55.8,27.1,30.15,SW,225,1.6,1.6,33,0.00,,---,0.00,VWS V14.01,2013-04-04 15:37:00,
2013-04-04 09:42:00,56.0,27.3,30.15,WSW,248,0.4,2.0,33,0.00,,---,0.00,VWS V14.01,2013-04-04 15:42:00,
2013-04-04 09:47:00,56.0,27.3,30.15,SW,225,1.6,1.6,33,0.00,,---,0.00,VWS V14.01,2013-04-04 15:47:00,
2013-04-04 09:52:00,56.2,27.5,30.15,WSW,248,4.0,4.0,33,0.00,,---,0.00,VWS V14.01,2013-04-04 15:52:00,
2013-04-04 09:57:00,56.3,27.6,30.15,West,270,2.0,3.4,33,0.00,,---,0.00,VWS V14.01,2013-04-04 15:57:00,
2013-04-04 10:02:00,56.7,27.2,30.15,WNW,292,3.1,3.1,32,0.00,,---,0.00,VWS V14.01,2013-04-04 16:02:00,
2013-04-04 10:07:00,56.3,26.8,30.15,SW,225,0.9,0.9,32,0.00,,---,0.00,VWS V14.01,2013-04-04 16:07:00,
2013-04-04 10:12:00,57.2,27.6,30.15,North,0,1.8,1.8,32,0.00,,---,0.00,VWS V14.01,2013-04-04 16:12:00,
2013-04-04 10:17:00,58.1,26.9,30.15,NW,315,1.1,1.1,30,0.00,,---,0.00,VWS V14.01,2013-04-04 16:17:00,
2013-04-04 10:22:00,58.3,26.2,30.15,WSW,248,1.8,1.8,29,0.00,,---,0.00,VWS V14.01,2013-04-04 16:22:00,
2013-04-04 10:27:00,58.0,24.2,30.15,WSW,248,1.1,1.1,27,0.00,,---,0.00,VWS V14.01,2013-04-04 16:27:00,
2013-04-04 10:32:00,59.4,25.4,30.15,WSW,248,2.5,2.5,27,0.00,,---,0.00,VWS V14.01,2013-04-04 16:32:00,
2013-04-04 10:37:00,59.4,22.6,30.15,WSW,248,2.2,2.2,24,0.00,,---,0.00,VWS V14.01,2013-04-04 16:37:00,
2013-04-04 10:42:00,59.4,23.6,30.15,East,90,0.4,0.4,25,0.00,,---,0.00,VWS V14.01,2013-04-04 16:42:00,
2013-04-04 10:47:00,59.8,23.9,30.15,West,270,1.1,1.1,25,0.00,,---,0.00,VWS V14.01,2013-04-04 16:47:00,
2013-04-04 10:52:00,61.4,24.3,30.15,SW,225,3.6,3.6,24,0.00,,---,0.00,VWS V14.01,2013-04-04 16:52:00,
2013-04-04 10:57:00,59.9,23.0,30.15,SW,225,3.6,3.6,24,0.00,,---,0.00,VWS V14.01,2013-04-04 16:57:00,
2013-04-04 11:02:00,59.4,23.6,30.15,SW,225,1.3,1.3,25,0.00,,---,0.00,VWS V14.01,2013-04-04 17:02:00,
2013-04-04 11:07:00,60.3,23.4,30.15,WNW,292,1.3,1.3,24,0.00,,---,0.00,VWS V14.01,2013-04-04 17:07:00,
2013-04-04 11:12:00,59.6,22.8,30.15,WSW,248,3.4,3.4,24,0.00,,---,0.00,VWS V14.01,2013-04-04 17:12:00,
2013-04-04 11:17:00,59.2,22.5,30.15,SSE,158,3.4,3.4,24,0.00,,---,0.00,VWS V14.01,2013-04-04 17:17:00,
2013-04-04 11:22:00,59.2,22.5,30.15,SSW,202,5.6,5.6,24,0.00,,---,0.00,VWS V14.01,2013-04-04 17:22:00,
2013-04-04 11:27:00,59.6,22.8,30.15,West,270,1.8,1.8,24,0.00,,---,0.00,VWS V14.01,2013-04-04 17:27:00,
2013-04-04 11:32:00,60.1,23.2,30.15,NNE,22,0.4,0.4,24,0.00,,---,0.00,VWS V14.01,2013-04-04 17:32:00,
2013-04-04 11:37:00,61.4,22.2,30.14,SSW,202,3.4,3.4,22,0.00,,---,0.00,VWS V14.01,2013-04-04 17:37:00,
2013-04-04 11:43:00,61.4,22.2,30.14,South,180,2.7,2.7,22,0.00,,---,0.00,VWS V14.01,2013-04-04 17:43:00,
2013-04-04 11:48:00,62.5,23.2,30.14,SW,225,1.8,1.8,22,0.00,,---,0.00,VWS V14.01,2013-04-04 17:48:00,
2013-04-04 11:53:00,62.5,24.2,30.14,NE,45,1.8,1.8,23,0.00,,---,0.00,VWS V14.01,2013-04-04 17:53:00,
2013-04-04 11:58:00,64.3,23.6,30.13,ENE,68,2.5,2.5,21,0.00,,---,0.00,VWS V14.01,2013-04-04 17:58:00,
2013-04-04 12:03:00,65.3,24.4,30.13,SE,135,0.4,1.1,21,0.00,,---,0.00,VWS V14.01,2013-04-04 18:03:00,
2013-04-04 12:08:00,66.4,22.9,30.13,South,180,1.8,1.8,19,0.00,,---,0.00,VWS V14.01,2013-04-04 18:08:00,
2013-04-04 12:12:00,65.9,21.2,30.13,SSE,158,1.8,1.8,18,0.00,,---,0.00,VWS V14.01,2013-04-04 18:12:00,
2013-04-04 12:17:00,66.2,21.5,30.12,WSW,248,3.6,3.6,18,0.00,,---,0.00,VWS V14.01,2013-04-04 18:17:00,
2013-04-04 12:22:00,63.7,20.7,30.12,West,270,3.1,3.1,19,0.00,,---,0.00,VWS V14.01,2013-04-04 18:22:00,
2013-04-04 12:27:00,63.5,22.9,30.12,NNW,338,1.8,1.8,21,0.00,,---,0.00,VWS V14.01,2013-04-04 18:27:00,
2013-04-04 12:32:00,63.7,23.1,30.12,WNW,292,3.6,3.6,21,0.00,,---,0.00,VWS V14.01,2013-04-04 18:32:00,
2013-04-04 12:37:00,64.4,21.3,30.11,SSE,158,2.9,2.9,19,0.00,,---,0.00,VWS V14.01,2013-04-04 18:37:00,
2013-04-04 12:42:00,64.4,21.3,30.11,WSW,248,1.3,1.3,19,0.00,,---,0.00,VWS V14.01,2013-04-04 18:42:00,
2013-04-04 12:47:00,64.8,21.6,30.11,SSW,202,2.7,2.7,19,0.00,,---,0.00,VWS V14.01,2013-04-04 18:47:00,
2013-04-04 12:52:00,64.4,21.3,30.11,SSW,202,4.3,4.3,19,0.00,,---,0.00,VWS V14.01,2013-04-04 18:52:00,
2013-04-04 12:57:00,63.9,22.1,30.11,West,270,0.2,0.2,20,0.00,,---,0.00,VWS V14.01,2013-04-04 18:57:00,
2013-04-04 13:02:00,64.1,23.4,30.10,East,90,0.7,0.7,21,0.00,,---,0.00,VWS V14.01,2013-04-04 19:02:00,
2013-04-04 13:07:00,65.0,21.8,30.10,SSW,202,3.8,3.8,19,0.00,,---,0.00,VWS V14.01,2013-04-04 19:07:00,
2013-04-04 13:12:00,64.6,23.8,30.10,NE,45,0.7,0.7,21,0.00,,---,0.00,VWS V14.01,2013-04-04 19:12:00,
2013-04-04 13:17:00,65.5,20.9,30.10,WSW,248,5.6,5.6,18,0.00,,---,0.00,VWS V14.01,2013-04-04 19:17:00,
2013-04-04 13:22:00,64.4,21.3,30.10,WNW,292,2.5,2.5,19,0.00,,---,0.00,VWS V14.01,2013-04-04 19:22:00,
2013-04-04 13:27:00,64.3,19.9,30.09,West,270,4.3,4.3,18,0.00,,---,0.00,VWS V14.01,2013-04-04 19:27:00,
2013-04-04 13:32:00,63.7,19.4,30.09,SW,225,3.4,3.4,18,0.00,,---,0.00,VWS V14.01,2013-04-04 19:32:00,
2013-04-04 13:37:00,64.4,20.0,30.09,SW,225,2.9,2.9,18,0.00,,---,0.00,VWS V14.01,2013-04-04 19:37:00,
2013-04-04 13:42:00,64.4,20.0,30.09,West,270,3.8,3.8,18,0.00,,---,0.00,VWS V14.01,2013-04-04 19:42:00,
2013-04-04 13:48:00,64.1,19.8,30.09,WNW,292,2.9,2.9,18,0.00,,---,0.00,VWS V14.01,2013-04-04 19:48:00,
2013-04-04 13:53:00,65.0,20.5,30.08,NNE,22,2.7,2.7,18,0.00,,---,0.00,VWS V14.01,2013-04-04 19:53:00,
2013-04-04 13:58:00,65.9,21.2,30.08,North,0,3.6,3.6,18,0.00,,---,0.00,VWS V14.01,2013-04-04 19:58:00,
2013-04-04 14:03:00,65.7,21.1,30.08,North,0,2.0,2.0,18,0.00,,---,0.00,VWS V14.01,2013-04-04 20:03:00,
2013-04-04 14:08:00,65.7,21.1,30.08,WNW,292,1.1,1.1,18,0.00,,---,0.00,VWS V14.01,2013-04-04 20:08:00,
2013-04-04 14:13:00,66.1,21.4,30.07,SSW,202,3.6,3.6,18,0.00,,---,0.00,VWS V14.01,2013-04-04 20:13:00,
2013-04-04 14:18:00,66.4,21.6,30.07,NNW,338,3.8,3.8,18,0.00,,---,0.00,VWS V14.01,2013-04-04 20:18:00,
2013-04-04 14:23:00,66.6,21.8,30.07,West,270,3.6,3.6,18,0.00,,---,0.00,VWS V14.01,2013-04-04 20:23:00,
2013-04-04 14:28:00,67.0,20.8,30.07,NE,45,9.4,9.4,17,0.00,,---,0.00,VWS V14.01,2013-04-04 20:28:00,
2013-04-04 14:33:00,67.0,22.1,30.06,NE,45,2.5,2.5,18,0.00,,---,0.00,VWS V14.01,2013-04-04 20:33:00,
2013-04-04 14:38:00,67.3,21.0,30.06,SW,225,4.5,4.5,17,0.00,,---,0.00,VWS V14.01,2013-04-04 20:38:00,
2013-04-04 14:42:00,67.7,21.4,30.06,South,180,1.8,1.8,17,0.00,,---,0.00,VWS V14.01,2013-04-04 20:42:00,
2013-04-04 14:47:00,67.7,19.9,30.06,West,270,5.4,5.4,16,0.00,,---,0.00,VWS V14.01,2013-04-04 20:47:00,
2013-04-04 14:52:00,67.7,19.9,30.06,WSW,248,1.6,1.6,16,0.00,,---,0.00,VWS V14.01,2013-04-04 20:52:00,
2013-04-04 14:57:00,67.5,19.8,30.06,West,270,5.6,5.6,16,0.00,,---,0.00,VWS V14.01,2013-04-04 20:57:00,
2013-04-04 15:02:00,67.3,19.6,30.06,WNW,292,4.0,4.0,16,0.00,,---,0.00,VWS V14.01,2013-04-04 21:02:00,
2013-04-04 15:07:00,68.0,20.2,30.05,SW,225,2.7,2.7,16,0.00,,---,0.00,VWS V14.01,2013-04-04 21:07:00,
2013-04-04 15:12:00,68.4,20.5,30.05,SW,225,3.4,3.4,16,0.00,,---,0.00,VWS V14.01,2013-04-04 21:12:00,
2013-04-04 15:17:00,69.1,19.5,30.05,West,270,5.4,5.4,15,0.00,,---,0.00,VWS V14.01,2013-04-04 21:17:00,
2013-04-04 15:22:00,69.8,16.8,30.05,SSW,202,3.8,3.8,13,0.00,,---,0.00,VWS V14.01,2013-04-04 21:22:00,
2013-04-04 15:27:00,69.7,16.7,30.05,SSE,158,2.0,2.0,13,0.00,,---,0.00,VWS V14.01,2013-04-04 21:27:00,
2013-04-04 15:32:00,71.1,15.9,30.05,SSW,202,2.5,2.5,12,0.00,,---,0.00,VWS V14.01,2013-04-04 21:32:00,
2013-04-04 15:37:00,71.1,15.9,30.04,SSW,202,1.6,1.6,12,0.00,,---,0.00,VWS V14.01,2013-04-04 21:37:00,
2013-04-04 15:42:00,71.6,14.4,30.04,SSW,202,1.8,1.8,11,0.00,,---,0.00,VWS V14.01,2013-04-04 21:42:00,
2013-04-04 15:48:00,71.1,11.8,30.04,WSW,248,6.9,6.9,10,0.00,,---,0.00,VWS V14.01,2013-04-04 21:48:00,
2013-04-04 15:53:00,69.8,13.0,30.04,WSW,248,6.3,6.3,11,0.00,,---,0.00,VWS V14.01,2013-04-04 21:53:00,
2013-04-04 15:58:00,70.4,13.4,30.04,SW,225,3.6,3.6,11,0.00,,---,0.00,VWS V14.01,2013-04-04 21:58:00,
2013-04-04 16:03:00,70.6,11.4,30.04,SSW,202,4.0,4.3,10,0.00,,---,0.00,VWS V14.01,2013-04-04 22:03:00,
2013-04-04 16:08:00,71.1,14.0,30.04,SSW,202,1.6,1.6,11,0.00,,---,0.00,VWS V14.01,2013-04-04 22:08:00,
2013-04-04 16:13:00,72.4,15.0,30.04,NW,315,0.7,0.7,11,0.00,,---,0.00,VWS V14.01,2013-04-04 22:13:00,
2013-04-04 16:18:00,72.5,12.9,30.04,SSW,202,1.1,1.1,10,0.00,,---,0.00,VWS V14.01,2013-04-04 22:18:00,
2013-04-04 16:23:00,72.4,12.8,30.04,SE,135,4.5,4.5,10,0.00,,---,0.00,VWS V14.01,2013-04-04 22:23:00,
2013-04-04 16:28:00,72.4,12.8,30.04,ESE,112,2.5,2.5,10,0.00,,---,0.00,VWS V14.01,2013-04-04 22:28:00,
2013-04-04 16:33:00,71.5,12.1,30.03,East,90,3.1,3.1,10,0.00,,---,0.00,VWS V14.01,2013-04-04 22:33:00,
2013-04-04 16:38:00,72.0,12.5,30.03,SW,225,2.5,2.5,10,0.00,,---,0.00,VWS V14.01,2013-04-04 22:38:00,
2013-04-04 16:43:00,73.1,13.3,30.03,SSW,202,8.5,8.5,10,0.00,,---,0.00,VWS V14.01,2013-04-04 22:43:00,
2013-04-04 16:48:00,72.0,12.5,30.03,SW,225,5.4,5.4,10,0.00,,---,0.00,VWS V14.01,2013-04-04 22:48:00,
2013-04-04 16:53:00,73.1,13.3,30.03,SSE,158,1.6,1.6,10,0.00,,---,0.00,VWS V14.01,2013-04-04 22:53:00,
2013-04-04 16:58:00,74.5,14.4,30.03,SE,135,1.6,1.6,10,0.00,,---,0.00,VWS V14.01,2013-04-04 22:58:00,
2013-04-04 17:03:00,76.0,13.1,30.03,ENE,68,2.2,2.2,9,0.00,,---,0.00,VWS V14.01,2013-04-04 23:03:00,
2013-04-04 17:08:00,75.1,12.5,30.03,SSW,202,1.6,4.5,9,0.00,,---,0.00,VWS V14.01,2013-04-04 23:08:00,
2013-04-04 17:13:00,75.1,14.9,30.03,SSE,158,0.4,0.4,10,0.00,,---,0.00,VWS V14.01,2013-04-04 23:13:00,
2013-04-04 17:18:00,75.2,14.9,30.03,SSE,158,0.4,0.4,10,0.00,,---,0.00,VWS V14.01,2013-04-04 23:18:00,
2013-04-04 17:23:00,76.3,10.7,30.03,SSW,202,2.0,2.0,8,0.00,,---,0.00,VWS V14.01,2013-04-04 23:23:00,
2013-04-04 17:28:00,75.6,10.2,30.03,SSE,158,2.2,2.2,8,0.00,,---,0.00,VWS V14.01,2013-04-04 23:28:00,
2013-04-04 17:33:00,75.8,10.3,30.03,SSW,202,4.5,4.5,8,0.00,,---,0.00,VWS V14.01,2013-04-04 23:33:00,
2013-04-04 17:38:00,74.5,9.4,30.02,ESE,112,1.3,1.3,8,0.00,,---,0.00,VWS V14.01,2013-04-04 23:38:00,
2013-04-04 17:43:00,73.6,8.7,30.03,South,180,1.8,1.8,8,0.00,,---,0.00,VWS V14.01,2013-04-04 23:43:00,
2013-04-04 17:48:00,73.8,11.5,30.02,SE,135,2.5,2.5,9,0.00,,---,0.00,VWS V14.01,2013-04-04 23:48:00,
2013-04-04 17:53:00,75.2,12.5,30.02,ENE,68,0.7,0.7,9,0.00,,---,0.00,VWS V14.01,2013-04-04 23:53:00,
2013-04-04 17:58:00,74.9,9.7,30.02,ESE,112,2.2,2.2,8,0.00,,---,0.00,VWS V14.01,2013-04-04 23:58:00,
2013-04-04 18:03:00,74.9,12.3,30.02,North,0,1.1,2.0,9,0.00,,---,0.00,VWS V14.01,2013-04-05 00:03:00,
2013-04-04 18:08:00,74.2,9.1,30.02,SE,135,1.8,1.8,8,0.00,,---,0.00,VWS V14.01,2013-04-05 00:08:00,
2013-04-04 18:13:00,73.8,13.9,30.02,SSE,158,0.7,0.7,10,0.00,,---,0.00,VWS V14.01,2013-04-05 00:13:00,
2013-04-04 18:18:00,73.8,13.9,30.02,East,90,0.2,0.2,10,0.00,,---,0.00,VWS V14.01,2013-04-05 00:18:00,
2013-04-04 18:23:00,74.7,14.6,30.02,North,0,0.4,0.4,10,0.00,,---,0.00,VWS V14.01,2013-04-05 00:23:00,
2013-04-04 18:28:00,74.7,9.5,30.02,SSW,202,0.4,0.4,8,0.00,,---,0.00,VWS V14.01,2013-04-05 00:28:00,
2013-04-04 18:33:00,74.7,12.2,30.02,SSE,158,1.1,1.1,9,0.00,,---,0.00,VWS V14.01,2013-04-05 00:33:00,
2013-04-04 18:38:00,74.2,14.2,30.02,SSE,158,0.2,0.2,10,0.00,,---,0.00,VWS V14.01,2013-04-05 00:38:00,
2013-04-04 18:43:00,73.3,13.5,30.02,ESE,112,0.4,0.4,10,0.00,,---,0.00,VWS V14.01,2013-04-05 00:43:00,
2013-04-04 18:48:00,71.8,12.3,30.01,NNE,22,0.7,0.7,10,0.00,,---,0.00,VWS V14.01,2013-04-05 00:48:00,
2013-04-04 18:53:00,70.7,11.5,30.02,ENE,68,0.4,0.4,10,0.00,,---,0.00,VWS V14.01,2013-04-05 00:53:00,
2013-04-04 18:58:00,69.7,12.9,30.01,ENE,68,0.0,0.0,11,0.00,,---,0.00,VWS V14.01,2013-04-05 00:58:00,
2013-04-04 19:03:00,68.9,12.3,30.01,ENE,68,0.0,0.4,11,0.00,,---,0.00,VWS V14.01,2013-04-05 01:03:00,
2013-04-04 19:08:00,68.4,11.9,30.01,ESE,112,0.4,0.4,11,0.00,,---,0.00,VWS V14.01,2013-04-05 01:08:00,
2013-04-04 19:13:00,67.9,11.5,30.01,SE,135,1.1,1.1,11,0.00,,---,0.00,VWS V14.01,2013-04-05 01:13:00,
2013-04-04 19:18:00,67.7,11.3,30.01,SE,135,0.4,0.4,11,0.00,,---,0.00,VWS V14.01,2013-04-05 01:18:00,
2013-04-04 19:23:00,67.3,13.0,30.01,SE,135,0.4,0.4,12,0.00,,---,0.00,VWS V14.01,2013-04-05 01:23:00,
2013-04-04 19:28:00,67.0,12.8,30.01,SE,135,0.7,0.7,12,0.00,,---,0.00,VWS V14.01,2013-04-05 01:28:00,
2013-04-04 19:33:00,66.4,12.3,30.01,SE,135,0.4,0.4,12,0.00,,---,0.00,VWS V14.01,2013-04-05 01:33:00,
2013-04-04 19:38:00,66.1,12.0,30.01,SE,135,0.7,0.7,12,0.00,,---,0.00,VWS V14.01,2013-04-05 01:38:00,
2013-04-04 19:43:00,65.9,11.9,30.01,SSE,158,1.3,1.3,12,0.00,,---,0.00,VWS V14.01,2013-04-05 01:43:00,
2013-04-04 19:48:00,65.7,11.7,30.01,SE,135,1.1,1.1,12,0.00,,---,0.00,VWS V14.01,2013-04-05 01:48:00,
2013-04-04 19:53:00,65.2,11.3,30.01,SE,135,1.1,1.1,12,0.00,,---,0.00,VWS V14.01,2013-04-05 01:53:00,
2013-04-04 19:58:00,64.8,11.0,30.02,SE,135,1.1,1.1,12,0.00,,---,0.00,VWS V14.01,2013-04-05 01:58:00,
2013-04-04 20:03:00,64.6,10.9,30.01,SE,135,1.8,1.8,12,0.00,,---,0.00,VWS V14.01,2013-04-05 02:03:00,
2013-04-04 20:08:00,64.4,10.7,30.02,SSE,158,1.1,1.1,12,0.00,,---,0.00,VWS V14.01,2013-04-05 02:08:00,
2013-04-04 20:13:00,64.1,10.5,30.02,SSE,158,0.2,0.2,12,0.00,,---,0.00,VWS V14.01,2013-04-05 02:13:00,
2013-04-04 20:18:00,63.7,10.2,30.02,SE,135,0.7,0.7,12,0.00,,---,0.00,VWS V14.01,2013-04-05 02:18:00,
2013-04-04 20:23:00,63.5,11.8,30.02,ESE,112,2.5,2.5,13,0.00,,---,0.00,VWS V14.01,2013-04-05 02:23:00,
2013-04-04 20:28:00,63.4,11.7,30.02,ESE,112,0.9,0.9,13,0.00,,---,0.00,VWS V14.01,2013-04-05 02:28:00,
2013-04-04 20:33:00,63.4,11.7,30.02,ESE,112,1.3,1.3,13,0.00,,---,0.00,VWS V14.01,2013-04-05 02:33:00,
2013-04-04 20:38:00,63.0,11.4,30.03,SE,135,0.9,0.9,13,0.00,,---,0.00,VWS V14.01,2013-04-05 02:38:00,
2013-04-04 20:43:00,62.8,11.2,30.03,ESE,112,2.0,2.0,13,0.00,,---,0.00,VWS V14.01,2013-04-05 02:43:00,
2013-04-04 20:48:00,62.6,11.1,30.03,ESE,112,0.9,0.9,13,0.00,,---,0.00,VWS V14.01,2013-04-05 02:48:00,
2013-04-04 20:53:00,62.5,11.0,30.03,ESE,112,0.7,0.7,13,0.00,,---,0.00,VWS V14.01,2013-04-05 02:53:00,
2013-04-04 20:58:00,62.5,11.0,30.03,ESE,112,2.0,2.0,13,0.00,,---,0.00,VWS V14.01,2013-04-05 02:58:00,
2013-04-04 21:03:00,62.5,11.0,30.03,ESE,112,1.8,1.8,13,0.00,,---,0.00,VWS V14.01,2013-04-05 03:03:00,
2013-04-04 21:08:00,62.5,11.0,30.03,SE,135,2.5,2.5,13,0.00,,---,0.00,VWS V14.01,2013-04-05 03:08:00,
2013-04-04 21:13:00,62.6,11.1,30.03,ESE,112,0.4,0.4,13,0.00,,---,0.00,VWS V14.01,2013-04-05 03:13:00,
2013-04-04 21:18:00,62.5,11.0,30.03,ESE,112,0.7,0.7,13,0.00,,---,0.00,VWS V14.01,2013-04-05 03:18:00,
2013-04-04 21:23:00,62.3,10.9,30.04,ESE,112,0.7,0.7,13,0.00,,---,0.00,VWS V14.01,2013-04-05 03:23:00,
2013-04-04 21:28:00,62.1,10.7,30.04,ESE,112,0.9,0.9,13,0.00,,---,0.00,VWS V14.01,2013-04-05 03:28:00,
2013-04-04 21:33:00,62.1,10.7,30.04,ESE,112,0.4,0.4,13,0.00,,---,0.00,VWS V14.01,2013-04-05 03:33:00,
2013-04-04 21:38:00,61.9,10.5,30.04,ENE,68,1.3,1.3,13,0.00,,---,0.00,VWS V14.01,2013-04-05 03:38:00,
2013-04-04 21:43:00,61.7,10.4,30.04,ENE,68,0.7,0.7,13,0.00,,---,0.00,VWS V14.01,2013-04-05 03:43:00,
2013-04-04 21:48:00,61.7,10.4,30.05,ENE,68,1.8,1.8,13,0.00,,---,0.00,VWS V14.01,2013-04-05 03:48:00,
2013-04-04 21:53:00,61.7,10.4,30.04,ENE,68,2.0,2.0,13,0.00,,---,0.00,VWS V14.01,2013-04-05 03:53:00,
2013-04-04 21:58:00,61.7,10.4,30.04,ENE,68,2.2,2.2,13,0.00,,---,0.00,VWS V14.01,2013-04-05 03:58:00,
2013-04-04 22:00:00,61.7,10.4,30.04,ENE,68,2.5,2.5,13,0.00,,---,0.00,VWS V14.01,2013-04-05 04:00:00,
2013-04-04 22:05:00,61.7,10.4,30.04,ENE,68,1.1,1.1,13,0.00,,---,0.00,VWS V14.01,2013-04-05 04:05:00,
2013-04-04 22:10:00,61.6,10.3,30.04,East,90,1.1,1.1,13,0.00,,---,0.00,VWS V14.01,2013-04-05 04:10:00,
2013-04-04 22:15:00,61.6,10.3,30.04,ENE,68,0.7,0.7,13,0.00,,---,0.00,VWS V14.01,2013-04-05 04:15:00,
2013-04-04 22:20:00,61.2,10.0,30.05,East,90,0.9,1.1,13,0.00,,---,0.00,VWS V14.01,2013-04-05 04:20:00,
2013-04-04 22:25:00,61.2,10.0,30.04,East,90,0.7,0.7,13,0.00,,---,0.00,VWS V14.01,2013-04-05 04:25:00,
2013-04-04 22:30:00,61.2,10.0,30.04,ESE,112,1.8,1.8,13,0.00,,---,0.00,VWS V14.01,2013-04-05 04:30:00,
2013-04-04 22:35:00,61.4,10.1,30.04,ESE,112,0.4,0.4,13,0.00,,---,0.00,VWS V14.01,2013-04-05 04:35:00,
2013-04-04 22:40:00,60.8,12.9,30.05,ESE,112,0.0,0.0,15,0.00,,---,0.00,VWS V14.01,2013-04-05 04:40:00,
2013-04-04 22:45:00,60.3,12.5,30.05,ESE,112,0.4,0.4,15,0.00,,---,0.00,VWS V14.01,2013-04-05 04:45:00,
2013-04-04 22:50:00,60.3,12.5,30.04,ENE,68,2.2,2.2,15,0.00,,---,0.00,VWS V14.01,2013-04-05 04:50:00,
2013-04-04 22:55:00,60.1,12.3,30.04,ENE,68,0.9,0.9,15,0.00,,---,0.00,VWS V14.01,2013-04-05 04:55:00,
2013-04-04 23:00:00,60.1,12.3,30.04,ENE,68,1.1,1.1,15,0.00,,---,0.00,VWS V14.01,2013-04-05 05:00:00,
2013-04-04 23:05:00,59.8,12.1,30.04,East,90,0.4,0.4,15,0.00,,---,0.00,VWS V14.01,2013-04-05 05:05:00,
2013-04-04 23:10:00,59.8,12.1,30.04,East,90,0.7,0.7,15,0.00,,---,0.00,VWS V14.01,2013-04-05 05:10:00,
2013-04-04 23:15:00,59.8,12.1,30.04,East,90,0.7,0.7,15,0.00,,---,0.00,VWS V14.01,2013-04-05 05:15:00,
2013-04-04 23:20:00,59.6,13.4,30.04,East,90,0.2,0.2,16,0.00,,---,0.00,VWS V14.01,2013-04-05 05:20:00,
2013-04-04 23:25:00,59.4,13.2,30.04,East,90,0.4,0.4,16,0.00,,---,0.00,VWS V14.01,2013-04-05 05:25:00,
2013-04-04 23:30:00,59.4,13.2,30.04,East,90,0.4,0.4,16,0.00,,---,0.00,VWS V14.01,2013-04-05 05:30:00,
2013-04-04 23:35:00,59.2,13.1,30.04,East,90,0.4,0.7,16,0.00,,---,0.00,VWS V14.01,2013-04-05 05:35:00,
2013-04-04 23:40:00,59.2,13.1,30.04,East,90,1.1,1.1,16,0.00,,---,0.00,VWS V14.01,2013-04-05 05:40:00,
2013-04-04 23:45:00,59.2,13.1,30.04,East,90,0.4,0.4,16,0.00,,---,0.00,VWS V14.01,2013-04-05 05:45:00,
2013-04-04 23:50:00,58.9,12.8,30.04,East,90,1.3,1.3,16,0.00,,---,0.00,VWS V14.01,2013-04-05 05:50:00,
2013-04-04 23:55:00,59.0,12.9,30.04,East,90,1.1,1.1,16,0.00,,---,0.00,VWS V14.01,2013-04-05 05:55:00,